Weather observations for the past three days for
New Smyrna Beach Municipal Airport
Imperial (Metric)
Date Time (edt) Wind (mph) Vis. (mi.) Weather Sky Cond. Temperature (ºF) Relative Humidity Wind Chill (°F) Heat Index (°F) Pressure Precipitation (in)
Air Dwpt 6 hour altimeter (in) sea level (mb) 1 hr 3 hr 6 hr
Max. Min.
16 10:47 SW 8 10.00 Partly Cloudy SCT030 87.8 78.8 75% 102 30.09 0.0
16 09:47 SW 8 10.00 Partly Cloudy SCT030 86 80.6 84% 102 30.09 0.0
16 08:47 S 8 10.00 Fair CLR 84.2 80.6 89% 98 30.08 0.0
16 07:47 Calm 10.00 Fair CLR 78.8 78.8 100% 83 30.08 0.0
16 06:47 Calm 7.00 Partly Cloudy SCT050 75.2 75.2 100% 73 30.04 0.0
15 21:47 Calm 10.00 Partly Cloudy SCT050 78.8 77 94% 83 30.05 0.0
15 20:47 SW 5 10.00 Partly Cloudy SCT050 78.8 77 94% 83 30.06 0.0
15 19:47 W 9 10.00 Light Rain SCT030 82.4 77 84% 91 30.06 0.0
15 18:47 SW 6 10.00 Partly Cloudy SCT050 84.2 80.6 89% 98 30.05 0.0
15 17:47 S 12 10.00 Partly Cloudy SCT050 87.8 75.2 66% 98 30.03 0.0
15 16:47 SE 12 10.00 Partly Cloudy SCT050 87.8 78.8 75% 102 30.03 0.0
15 15:50 SE 8 10.00 Thunderstorm SCT030 86 78.8 79% 99 30.06 0.0
15 14:47 SE 14 10.00 Partly Cloudy SCT030 87.8 77 70% 100 30.07 0.0
15 13:50 E 12 10.00 Partly Cloudy SCT034 89.6 78.8 71% 105 30.09 0.0
15 12:50 E 12 10.00 Partly Cloudy SCT034 89.6 78.8 71% 105 30.11 0.0
15 11:50 SE 6 10.00 A Few Clouds FEW034 89.6 77 67% 103 30.12 0.0
15 10:50 SW 7 10.00 A Few Clouds FEW026 87.8 78.8 75% 102 30.13 0.0
15 09:47 SW 7 10.00 A Few Clouds FEW022 86 78.8 79% 99 30.13 0.0
15 08:47 Calm 10.00 Fair CLR 82.4 73.4 74% 88 30.13 0.0
15 07:47 Calm 10.00 Fair CLR 77 77 100% 78 30.11 0.0
15 06:47 Calm 10.00 Fair CLR 73.4 73.4 100% 30.1 0.0
14 21:47 W 6 10.00 A Few Clouds FEW020 78.8 78.8 100% 83 30.12 0.0
14 20:47 SW 8 10.00 A Few Clouds FEW050 80.6 78.8 94% 88 30.11 0.0
14 18:47 SE 12 10.00 A Few Clouds FEW050 84.2 77 79% 94 30.09 0.0
14 17:47 SE 13 10.00 Thunderstorm in Vicinity SCT050 86 77 75% 97 30.1 0.0
14 16:47 SE 9 10.00 Thunderstorm in Vicinity SCT040 87.8 73.4 62% 96 30.1 0.0
14 15:47 SE 14 10.00 Partly Cloudy SCT040 89.6 75.2 63% 100 30.11 0.0
14 14:47 SE 14 10.00 Partly Cloudy SCT040 89.6 75.2 63% 100 30.12 0.0
14 13:47 SE 12 10.00 Partly Cloudy SCT040 89.6 75.2 63% 100 30.15 0.0
14 12:47 E 10 10.00 Partly Cloudy SCT040 89.6 77 67% 103 30.16 0.0
14 10:47 NW 6 10.00 Fair CLR 87.8 75.2 66% 98 30.17 0.0
14 09:47 W 6 10.00 Fair CLR 86 75.2 70% 95 30.16 0.0
14 08:47 W 5 10.00 Fair CLR 84.2 77 79% 94 30.16 0.0
14 07:47 Calm 10.00 Fair CLR 78.8 78.8 100% 83 30.16 0.0
14 06:47 Calm 10.00 Fair CLR 75.2 75.2 100% 73 30.15 0.0
13 21:47 S 5 10.00 Partly Cloudy SCT080 78.8 73.4 84% 82 30.17 0.0
13 20:47 S 5 10.00 Partly Cloudy SCT080 78.8 73.4 84% 82 30.18 0.0
13 19:47 SW 5 10.00 Mostly Cloudy BKN080 80.6 73.4 79% 85 30.17 0.0
13 18:47 SW 5 10.00 Thunderstorm BKN045 80.6 77 89% 87 30.18 0.0
13 17:47 W 9 10.00 Thunderstorm BKN045 80.6 73.4 79% 85 30.15 0.0
13 16:47 N 6 10.00 Thunderstorm BKN045 84.2 71.6 66% 90 30.14 0.0
13 15:47 SE 15 10.00 Thunderstorm in Vicinity SCT045 91.4 75.2 59% 103 30.14 0.0
13 14:47 SE 15 10.00 Partly Cloudy SCT045 91.4 75.2 59% 103 30.15 0.0
13 13:47 E 13 10.00 Partly Cloudy SCT047 91.4 75.2 59% 103 30.17 0.0
13 12:47 E 12 10.00 Partly Cloudy SCT047 91.4 77 63% 105 30.19 0.0
13 11:47 SW 6 10.00 Partly Cloudy SCT034 91.4 73.4 56% 100 30.2 0.0
Date Time (edt) Wind (mph) Vis. (mi.) Weather Sky Cond. Air Dwpt Max. Min. Relative Humidity Wind Chill (°F) Heat Index (°F) altimeter (in) sea level (mb) 1 hr 3 hr 6 hr
6 hour
Temperature (ºF) Pressure Precipitation (in)